Regional Weather Roundup
Issued by NWS Wakefield, VA

Home | Current Version | Previous Version | Text Only | Print | Product List | Glossary Off
Versions: 1 2 3 4 5 6 7 8 9 10 11 12 13 14 15 16 17 18 19 20 21 22 23 24 25 26 27 28 29 30 31 32 33 34 35 36 37 38 39 40 41 42 43 44 45 46 47 48 49 50

000
ASUS41 KAKQ 240010
RWRAKQ

REGIONAL WEATHER ROUNDUP
NATIONAL WEATHER SERVICE WAKEFIELD VA
800 PM EDT TUE SEP 23 2014

Note: "fair" indicates few or no clouds below 12,000 feet with no
significant weather and/or obstructions to visibility. * = Denotes
station may not report precipitation (e.g., rain,snow,etc.),
thunder or fog.

VAZ042-051-052>054-056-240100-
NORTHERN VIRGINIA

CITY           SKY/WX    TMP DP  RH WIND       PRES   REMARKS
WASH NATIONAL  MOCLDY    66  44  45 SE5       30.35R
DULLES         MOCLDY    60  45  57 NE5       30.34S
FORT BELVOIR   PTCLDY    56  52  84 CALM      30.36R
QUANTICO       MOCLDY    62  53  72 NW5       30.36R
FREDERICKSBRG* MOCLDY    61  51  69 CALM      30.33R
STAFFORD*      MOCLDY    55  55 100 CALM      30.38R
WARRENTON      PTCLDY    54  51  90 CALM      30.34R
CULPEPER*      MOCLDY    55  46  71 CALM      30.35R
MANASSAS*      NOT AVBL
LEESBURG*      PTCLDY    59  52  77 CALM      30.35S
WINCHESTER     PTCLDY    54  43  66 CALM      30.35R
FRONT ROYAL*   MOCLDY    54  46  76 CALM      30.35R
LURAY*         MOCLDY    59  46  63 N3        30.35R
$$

VAZ048-049-060>072-079>083-240100-
CENTRAL AND SOUTH CENTRAL VIRGINIA...AND NORTH CENTRAL NORTH CAROLINA

CITY           SKY/WX    TMP DP  RH WIND       PRES   REMARKS
RICHMOND       MOCLDY    59  47  64 E3        30.34R
CHESTERFIELD*  MOCLDY    61  39  44 CALM      30.35R
PETERSBURG*    MOCLDY    55  50  81 CALM      30.34S
HANOVER        MOCLDY    54  50  86 CALM      30.36R
TAPPAHANNOCK*  MOCLDY    52  47  82 CALM      30.34R
CHARLOTTSVILLE MOCLDY    62  44  51 E5        30.34R
ORANGE*        MOCLDY    55  48  76 CALM      30.36R
LOUISA*        CLOUDY    57  48  72 CALM      30.32S
FARMVILLE*     MOCLDY    55  48  76 CALM      30.32R
CREWE*         MOCLDY    53  49  87 CALM      30.33S
FORT PICKETT*  MOCLDY    55  49  81 N3        30.34R
LUNENBURG*     MOCLDY    52  50  92 N5        30.32S
SOUTH HILL*    MOCLDY    57  57 100 CALM      30.37F
LAWRENCEVILLE* MOCLDY    57  55  91 CALM      30.32S
ROANOKE RAPIDS DRIZZLE   57  52  82 N5        30.31R
RALEIGH        LGT RAIN  58  49  72 NE6       30.32S
$$

VAZ088>098-240100-
SOUTHEAST VIRGINIA

CITY           SKY/WX    TMP DP  RH WIND       PRES   REMARKS
NORFOLK        CLOUDY    64  52  64 NE16G23   30.30R
VIRGINIA BEACH CLOUDY    64  52  64 NE10      30.29R
NORFOLK NAVAL  CLOUDY    65  51  60 NE16      30.32R
WEST POINT*    MOCLDY    55  49  82 CALM      30.36R
NEWPORT NEWS   CLOUDY    62  51  67 N6        30.32R
LANGLEY AFB    MOCLDY    62  52  68 NE8       30.31R
FORT EUSTIS    CLOUDY    61  46  59 N5        30.30S
WILLIAMSBURG*  MOCLDY    59  52  77 CALM      30.34R
HR EXEC AP*    CLOUDY    59  52  77 N3        30.33R
FRANKLIN*      CLOUDY    59  52  77 NE3       30.31S
WAKEFIELD      MOCLDY    58  51  78 CALM      30.32R
$$

VAZ020-022-025-037-045-240100-
WEST CENTRAL AND SOUTHWEST VIRGINIA

CITY           SKY/WX    TMP DP  RH WIND       PRES   REMARKS
STAUNTON*      MOCLDY    60  42  51 NE3       30.36R
HOT SPRINGS VA MOCLDY    51  32  48 E5        30.39S
LYNCHBURG      CLOUDY    53  51  93 CALM      30.35R
DANVILLE       CLOUDY    58  52  80 N3        30.33S
SOUTH BOSTON*  NOT AVBL
MARTINSVILLE   CLOUDY    56  56 100 CALM      30.36R
ROANOKE        CLOUDY    57  50  77 SE3       30.34R
BLACKSBURG     CLOUDY    55  54  94 CALM      30.35R
DUBLIN*        CLOUDY    57  54  88 CALM      30.34R
MARION*        CLOUDY    58  52  81 E3        30.35S
HILLSVILLE*    CLOUDY    53  51  93 E3        30.34R
RICHLANDS*     MOCLDY    63  53  68 SE5       30.31R
WISE*          PTCLDY    59  50  72 NE6       30.31S
ABINGDON*      MOCLDY    63  53  70 NE3       30.28S
$$

MDZ021>025-VAZ099-100-240100-
SOUTHERN MARYLAND AND THE DELMARVA PENINSULA

CITY           SKY/WX    TMP DP  RH WIND       PRES   REMARKS
PATUXENT RIVER PTCLDY    53  46  77 CALM      30.33R
BAY BRIDGE APT   N/A     63  45  51 SE7       30.36R
LEONARDTOWN    PTCLDY    54  46  76 CALM      30.36R
DOVER          PTCLDY    57  51  81 SE2       30.33R
GEORGETOWN     MOCLDY    58  49  72 CALM      30.36R
EASTON         PTCLDY    59  48  67 CALM      30.39R
CAMBRIDGE      PTCLDY    59  46  63 NE6       30.35R
SALISBURY      CLOUDY    59  49  69 NE5       30.34R
OCEAN CITY     CLOUDY    57  50  77 N6        30.34S
WALLOPS ISLAND CLOUDY    60  50  69 N7        30.34R
ACCOMACK*      CLOUDY    55  48  76 N3        30.33R
$$

NCZ012>017-030>032-240100-
EASTERN NORTH CAROLINA

CITY           SKY/WX    TMP DP  RH WIND       PRES   REMARKS
ELIZABETH CITY CLOUDY    63  55  75 N12       30.27R
AHOSKIE*       LGT RAIN  58  54  86 N5        30.31R
EDENTON*       CLOUDY    60  56  85 N8        30.28R
CURRITUCK*     CLOUDY    65  53  65 NE12G21   30.28S
KILL DEVIL HLS CLOUDY    67  57  72 NE12G20   30.24R
MANTEO         CLOUDY    66  58  75 N15G24    30.25R
CAPE HATTERAS  CLOUDY    68  63  84 NE10G29   30.17F
TARBORO*       LGT RAIN  60  55  86 N3        30.30R
GOLDSBORO      CLOUDY    60  59  97 N2        30.27R
WASHINGTON     CLOUDY    59  55  88 N8        30.27S
GREENVILLE     CLOUDY    59  55  88 N7        30.29R
NEW BERN       LGT RAIN  63  58  83 N13G18    30.24S
WILMINGTON     LGT RAIN  60  59  96 N13       30.21S
$$

VAZ048-240100-
ELSEWHERE

CITY           SKY/WX    TMP DP  RH WIND       PRES   REMARKS
HARRISBURG PA  MOCLDY    61  55  81 NW3       30.34R
BALTIMORE      PTCLDY    59  48  67 CALM      30.34R
ANNAPOLIS      CLEAR     61  51  70 CALM      30.35R
ANDREWS AFB    CLEAR     57  49  73 CALM      30.35R
WILMINGTON DE  CLEAR     63  50  62 S5        30.36R
PHILADELPHIA   PTCLDY    65  48  54 S6        30.36R
WILDWOOD NJ*   MOCLDY    57  48  72 CALM      30.37R
ATLANTIC CITY  MOCLDY    56  51  84 CALM      30.37R
HENDERSON NC   CLOUDY    56  50  80 CALM      30.33R
GREENSBORO     CLOUDY    56  50  80 S6        30.33R
ROCKY MOUNT    LGT RAIN  59  54  83 N9        30.29S
FAYETTEVILLE   CLOUDY    59  54  83 NE9       30.26R
CHARLOTTE      CLOUDY    57  49  74 N9        30.30S
$$

VAZ100-240100-
MARINE

STATION/POSITION TIME  TEMP    WIND        PRES    WAVE   SWELL
                       AIR SEA DIR/SP/G            HT/PER HT/PER
                 (UTC) (F)     (DEG/KT/KT) (MB)    (FT/S) (FT/S)
44066 TX TWR #4  0000   62 70   30/  4/  8 1027.9R   2/ 9   2/ 9
CAPE MAY NJ      0000   62 74   40/  2/  3 1027.2R
LEWES DE         0000   62 69   CALM  /  2 1027.6R
15NM E FENWICK I 0000   64 71              1027.2R   2/ 8
OCEAN-CITY-INLET 0000   62 70  360/  8/  9 1026.7S
WACHAPREAGUE VA  0000   60 69  350/  5/  8 1026.8R
THOMAS POINT MD  0000   65 72  110/ 12/ 14 1028.6R
GOOSES REEF MD   0000   66      60/  6/ 10 1027.8R
COVE POINT MD    0000   65      70/  7/ 10 1027.2R
SOLOMONS ISLAND  0000      74                N/A
BISHOPS HEAD MD  0000   63 67   80/  7/ 10 1026.6F
PINEY POINT MD   0000           20/  3/  4   N/A
POTOMAC MD       0000   65      70/  8/ 10 1026.4S
CAMBRIDGE MD     0000   63 71   50/ 10/ 12 1027.2S
LEWISETTA VA     0000   64 70   50/  4/  6 1026.7R
RAPPAHANNOCK LGT 0000           30/ 13/ 15 1027.2R
STINGRAY PT      0000   64      40/ 12/ 16   N/A
YORK RVR RNG VA  0000   64      70/ 12/ 14 1026.1R
YORKTOWN VA      0000   63 74   20/  7/ 10 1026.4R
JAMESTOWN VA     0000   60      40/  4/  4   N/A
DOMINION TERM VA 0000   64      60/  2/  3 1026.4S
KIPTOPEKE VA     0000      76   10/  6/  8   N/A
CHES BAY BRIDGE  0000   64 74   20/ 16/ 19 1025.5R
CAPE HENRY VA    0000   65      30/ 16/ 19 1024.7S
CHESAPEAKE LGHT  2300   65      40/ 19/ 21 1025.6F
WILLOUBY STN VA  0000   64      30/ 13/ 15 1025.0R
S CRANEY ISL VA  0000          360/ 11/ 14 1025.9R
CAPE HENRY BUOY  2300      74                N/A     4/ 4
1ST LANDING BUOY 0000   65      20/ 16/ 19 1025.6S
CAPE CHARLES BUO 0000      73                N/A     3/ 4   2/ 7
OFFSHORE WE BUOY 0000      73                N/A     4/ 5   2/ 8
64NM E OF VA BCH 0000   70 75   50/ 19/ 23 1023.6S   4/ 5   2/10
DUCK PIER NC     0000   67 73   30/ 20/ 23 1023.8R
44100 DUCK FRF   2300      74                N/A     5/ 5
44056 DUCK FRF   0000                        N/A     5/ 5
OREGON INLET NC  0000   68 73   30/ 19/ 23 1023.2S
DIAMOND SHLS NC  0000   71      10/ 25/ 31 1020.2R   8/ 6
CAPE LOOKOUT NC  2300   67      10/ 19/ 22 1021.2S
$$



USA.gov is the U.S. government's official web portal to all federal, state and local government web resources and services.